Location: *
(24.1434°N, 56.8729°E)
Time: 18:43:58
(UTC+00:00)

SL-16 R/B - Pass Details

Date: 09 April 2020
Orbit: 840 x 849 km, 71.0° (Epoch: 06 June)

Event Time Altitude Azimuth Distance (km) Brightness Sun altitude
Rises 23:26:32 0° 347° (NNW) 3,398 5.5 -33.1°
Reaches altitude 10° 23:29:01 10° 352° (N) 2,462 4.8 -32.6°
Maximum altitude 23:34:35 58° 71° (ENE) 979 2.7 -31.4°
Drops below altitude 10° 23:40:08 10° 149° (SSE) 2,459 4.6 -30.3°
Sets 23:42:36 0° 153° (SSE) 3,393 5.4 -29.8°
